Погода в Куре

Погода в Куре : погода сейчас, прогноз погоды и архив. Всё, что Вы хотите узнать о погоде в Куре!

Поиск расширенной информации на нашем сайте:

Другие новости

Новости СМИ2

Главная страница сайта

Новости сайта

03.07.2017

Напоминаем, что на нашем специализированном сайте Метеоцентр.Азия вы можете получить высокодетализированные автоматические прогнозы погоды по пунктам России, СНГ и мира в авиационном формате (включающие направление и скорость ветра, видимость, явления погоды, количество и форму облачности, нижнюю и верхнюю границу облачности).


Погода в Куре - сегодня

Время (UTC), дата Ветер
(°,м/с) 
Видим.   Явления Облачность Т
(°С)
Тd
(°С)
f(%) Тe
(°С)
Pmin
(гПа)
dP
(гПа)
Po
(мм)
O2
(г/м3)
Тmin Tmax R s Состояние
почвы
03 15.06.18 250 (З) 20000 м    10/4 600 м кучево-дожд., средняя, верхняя 
[Cb cap|Ac lent|Cs]
+18.9 +8.4 50 +20  1015  -0.8  737  276           
06 15.06.18 230 (ЮЗ) 20000 м    9/9 600 м кучево-дожд. 
[Cb cap]
+20.2 +7.8 45 +20  1013.5  -1.3  736  275           
12 15.06.18 210 (ЮЗ) н/о    н/о 
+15.5 +10.4 72 +19  1014  0.7  736  279           
15 15.06.18 тихо ()   20000 м  {дождь}  10/3 600 м кучево-дожд., средняя 
[Cb cap|As op]
+12.8 +12.5 98 +18  1013.6  -0.6  735  280           
18 15.06.18 тихо ()   н/о    н/о 
+11.4 +11.4 100 +15  1013.5  -0.3  735  282           
00 16.06.18 050 (СВ) 10 км  слаб. морось  10/6 300 м средняя 
[St|As op]
+13.4 +13 97 +21  1012.4  -0.8  734  279           
03 16.06.18 240 (ЮЗ) 10 км  слаб. морось{дождь}  10/8 300 м средняя 
[St|As op]
+14.2 +13.9 98 +22  1011.5  -0.8  734  278           
06 16.06.18 тихо ()   10 км  слаб. морось{дождь}  10/8 600 м средняя 
[St|As op]
+14.6 +13.9 96 +22  1009.6  -1.8  732  277           
12 16.06.18 040 (СВ) н/о    н/о 
+12.9 +12.9 100 +20  1007  -1.3  730  278           
15 16.06.18 тихо ()   4000 м  дождь  10/10 600 м 
[Ns]
+12.4 +12.4 100 +18  1005.3  -1.8  729  279           
18 16.06.18 040 (СВ) н/о    н/о 
+12.1 +12.1 100 +17  1001.9  -3.3  727  278           
21 16.06.18 тихо ()   10 км  {дождь}  10/10 300 м 
[St]
+12.3 +12.3 100 +17  1000.2  -1.5  725  277  +11.8    25    влажная 
00 17.06.18 230 (ЮЗ) 10 км  в посл. час дождь  10/4 300 м средняя 
[St|As op]
+12.7 +12.6 99 +19  1000.5  0.3  726  277           
03 17.06.18 230 (ЮЗ) 20000 м    10/3 300 м средняя 
[St|As trans]
+15.4 +13.5 88 +23  1000.3  0.1  726  274           
06 17.06.18 220 (ЮЗ) 20000 м  в посл. час дождь  10/8 600 м средняя 
[Frnb|As op]
+16.4 +13.1 81 +24  1000.1  0.1  726  273           
12 17.06.18 тихо ()   н/о    н/о 
+13.7 +13.2 97 +20  1002.4  1.7  727  276           
15 17.06.18 230 (ЮЗ) 20000 м  {дождь}  9/0 средняя 
[Ac As]
+12.1 +12.1 100 +18  1002.6  727  278           
18 17.06.18 200 (Ю) н/о    н/о 
+11.5 +11.5 100 +17  1003  0.3  727  279           
21 17.06.18 тихо ()   20000 м  в посл. час ливневой дождь  8/6 600 м кучево-дожд., средняя 
[Cb cap|Ac cuf]
+12 +12 100 +17  1003.1  0.2  727  278  +10.9      влажная 
00 18.06.18 210 (ЮЗ) 20000 м  {ливн. осадки}  3/1 600 м верхняя 
[Cu med, cong|Ci sp]
+19.4 +11 58 +23  1001.9  -0.4  727  271           
03 18.06.18 220 (ЮЗ) 20000 м    8/8 600 м кучево-дожд., верхняя 
[Cb cap|Ci sp]
+24.2 +9.9 40 +26  1000  -1.2  726  267           
12 18.06.18 тихо ()   4000 м  дождь{ливн. осадки}  10/10 600 м 
[Frnb|Ns]
+15.1 +15.1 100 +25  1001.6  0.4  727  274           
15 18.06.18 020 (С) 2000 м  сильн. дождь  10/10 600 м 
[Ns]
+14.2 +14.2 100 +23  998.6  -3  724  274           
18 18.06.18 050 (СВ) н/о    н/о 
+14 +14 100 +22  995.5  -3  722  274           
21 18.06.18 030 (СВ) 4000 м  дождь  10/10 600 м 
[Frnb|Ns]
+12.1 +12 99 +17  994.8  -0.9  721  276  +12.1    24    влажная 
Время (UTC), дата Ветер
(°,м/с) 
Видим.   Явления Облачность Т
(°С)
Тd
(°С)
f(%) Тe
(°С)
Pmin
(гПа)
dP
(гПа)
Po
(мм)
O2
(г/м3)
Тmin Tmax R s Состояние
почвы

Для получения пояснительной информации подведите курсор к названию столбца.

ПОГОДА в Куре - архив

Всё, что Вы хотите узнать о погоде в Куре - удобно и подробно!

Выберите нужную дату (начиная с 1 января 2015* года) и нажмите кнопку "Найти".
Будут отображены архивные сводки погоды по пункту Кур, начиная с указанной даты.


Отображать данные в формате CSV (для использования в таблицах Excel)


Внимание! Наш архив погоды предназначен исключительно для личного некоммерческого использования в познавательных целях. Если Вам необходимы официальные справки о состоянии погоды (для производственных, юридических, коммерческих и т.п. целей), обращайтесь в органы Росгидромета.

*Примечание: данная дата относится к архиву по метеостанциям СССР (Россия, СНГ, Балтия).
Архив по метеостанциям Зарубежной Европы и Азии (кроме Китая) хранится 10 дней, по другим регионам земного шара (Китай, Африка, Америка, Австралия, Океания) - 1 день.

Кур - район местоположения метеостанции


Название, широта, долгота, высота метеостанции:
Кур 49.9°ш. 134.6°д. 283 м над ур. моря [Российская Федерация]

Дополнительная информация

В oтличие oт бoльшинства пoгoдных сайтoв мы публикуем пoдрoбную метеoинфoрмацию в детальнoм прoфессиoнальнoм фoрмате.

Характеристики температуры и влажнoсти вoздуха измеряются на высoте 2 м в тени вдали oт зданий и деревьев.
Скoрoсть ветра измеряется на высoте 10 м (на урoвне рoста челoвека скoрoсть ветра ниже в 1.5-2 раза). Если метеoстанция нахoдится в гoрoде или в лесу, тo скoрoсть ветра занижена на 2-4 м/с пo сравнению с oткрытым местoм. Скoрoсть ветра над акватoриями крупных рек и oзёр, а также на вершинах хoлмoв на 2-5 м/с выше, чем в oбычных услoвиях.
Атмoсфернoе давление в разных тoчках местнoсти мoжет значительнo oтличаться oт давления на метеoстанции, в зависимoсти oт услoвий рельефа (при пoдъёме на 10 м давление пoнижается примернo на 1 мм рт.ст.).